This demonstration page uses our WeatherBlox Daily Observations layout. Learn more.

Hourly Observations for July 17, 2015

Temp ( °F °C ) Dew Point ( °F °C ) Humidity (%) Winds ( mph kmh ) Pressure ( in mb ) Visibility ( mi km ) Precip ( " mm )
12:15 am 00:15 Clear 72 22.3 64 17.8 76 76 SSW 3 6 29.74 1007 10 16.0934 0 0
12:35 am 00:35 Clear 74 23.1 62 16.6 67 67 S 3 6 29.71 1006 10 16.0934 0 0
12:55 am 00:55 Clear 72 22.1 62 16.4 70 70 Calm 29.74 1007 10 16.0934 0 0
1:15 am 01:15 Clear 70 21 63 17.2 79 79 Calm 29.74 1007 10 16.0934 0 0
1:35 am 01:35 Clear 71 21.7 62 16.6 73 73 S 3 6 29.71 1006 10 16.0934 0 0
1:55 am 01:55 Clear 71 21.6 61 16.3 72 72 S 6 9 29.71 1006 10 16.0934 0 0
2:15 am 02:15 Clear 72 22.2 60 15.7 67 67 S 6 9 29.71 1006 10 16.0934 0 0
2:35 am 02:35 Clear 71 21.7 60 15.7 69 69 S 5 7 29.71 1006 10 16.0934 0 0
2:55 am 02:55 Clear 71 21.6 60 15.7 69 69 S 5 7 29.71 1006 10 16.0934 0 0
3:15 am 03:15 Clear 71 21.5 60 15.6 69 69 S 7 11 29.71 1006 10 16.0934 0 0
3:35 am 03:35 Clear 71 21.4 60 15.8 71 71 S 7 11 29.74 1007 10 16.0934 0 0
3:55 am 03:55 Clear 69 20.6 61 16.1 76 76 SW 5 7 29.74 1007 10 16.0934 0 0
4:15 am 04:15 Clear 69 20.8 61 16 74 74 SW 5 7 29.74 1007 10 16.0934 0 0
4:35 am 04:35 Clear 71 21.5 60 15.8 70 70 SSW 6 9 29.71 1006 10 16.0934 0 0
4:55 am 04:55 Clear 70 20.9 60 15.8 73 73 SSW 6 9 29.74 1007 10 16.0934 0 0
5:15 am 05:15 Clear 69 20.5 61 16 76 76 S 8 13 29.74 1007 10 16.0934 0 0
5:35 am 05:35 Clear 68 19.9 61 16 78 78 S 5 7 29.74 1007 10 16.0934 0 0
5:55 am 05:55 Clear 67 19.7 61 16 79 79 SSW 6 9 29.74 1007 10 16.0934 0 0
6:15 am 06:15 Clear 68 20 61 16 78 78 SSW 5 7 29.74 1007 10 16.0934 0 0
6:35 am 06:35 Sunny 67 19.5 61 16.1 81 81 SSW 6 9 29.74 1007 10 16.0934 0 0
6:55 am 06:55 Sunny 69 20.5 61 16.3 77 77 SSW 6 9 29.74 1007 10 16.0934 0 0
7:15 am 07:15 Sunny 70 21 61 16.3 75 75 S 5 7 29.74 1007 10 16.0934 0 0
7:35 am 07:35 Sunny 71 21.5 62 16.7 74 74 S 3 6 29.71 1006 10 16.0934 0 0
7:55 am 07:55 Sunny 72 22.1 64 17.5 75 75 Calm 29.71 1006 10 16.0934 0 0
8:15 am 08:15 Sunny 74 23.6 64 17.7 70 70 SW 5 7 29.71 1006 10 16.0934 0 0
8:35 am 08:35 Sunny 77 24.8 64 17.7 65 65 SW 7 11 29.68 1005 10 16.0934 0 0
8:55 am 08:55 Sunny 79 25.9 64 17.9 61 61 SW 8 13 29.68 1005 10 16.0934 0 0
9:15 am 09:15 Sunny 80 26.5 64 17.8 59 59 SW 9 15 29.68 1005 10 16.0934 0 0
9:35 am 09:35 Sunny 81 27.3 65 18.2 58 58 SW 7 11 29.68 1005 10 16.0934 0 0
9:55 am 09:55 Sunny 82 28 65 18.6 57 57 SW 7 11 29.68 1005 10 16.0934 0 0
10:15 am 10:15 Sunny 83 28.5 65 18.6 55 55 WSW 9 15 29.65 1004 10 16.0934 0 0
10:35 am 10:35 Sunny 84 28.9 66 19.1 55 55 WSW 9 15 29.65 1004 10 16.0934 0 0
10:55 am 10:55 Sunny 85 29.3 67 19.5 56 56 WSW 8 13 29.65 1004 10 16.0934 0 0
11:15 am 11:15 Sunny 86 30 67 19.7 54 54 SW 10 17 29.65 1004 10 16.0934 0 0
11:35 am 11:35 Sunny 86 30.2 69 20.3 55 55 SW 6 9 29.65 1004 10 16.0934 0 0
11:55 am 11:55 Sunny 88 31.2 68 20.1 52 52 SSW 9 15 29.65 1004 10 16.0934 0 0
12:15 pm 12:15 Sunny 90 32 67 19.7 48 48 SSW 9 15 29.65 1004 10 16.0934 0 0
12:35 pm 12:35 Sunny 90 32.1 68 20.2 49 49 S 10 17 29.65 1004 10 16.0934 0 0
12:55 pm 12:55 Sunny 91 32.7 67 19.6 46 46 SSW 9 15 29.62 1003 10 16.0934 0 0
1:15 pm 13:15 Sunny 91 32.9 69 20.3 47 47 S 10 17 29.62 1003 10 16.0934 0 0
1:35 pm 13:35 Sunny 92 33.4 67 19.6 44 44 S 9 15 29.59 1002 10 16.0934 0 0
1:55 pm 13:55 Sunny 92 33.4 68 19.9 45 45 S 10 17 29.59 1002 10 16.0934 0 0
2:15 pm 14:15 Sunny 94 34.5 65 18.3 38 38 S 9 15 29.59 1002 10 16.0934 0 0
2:35 pm 14:35 Sunny 94 34.6 65 18.4 38 38 S 9 15 29.59 1002 10 16.0934 0 0
2:55 pm 14:55 Sunny 95 35.1 63 17.2 34 34 S 9 15 29.59 1002 10 16.0934 0 0
3:15 pm 15:15 Sunny 94 34.5 66 18.9 40 40 S 9 15 29.59 1002 10 16.0934 0 0
3:35 pm 15:35 Sunny 94 34.5 67 19.6 41 41 SSE 7 11 29.59 1002 10 16.0934 0 0
3:55 pm 15:55 Sunny 94 34.7 69 20.3 43 43 SSE 8 13 29.59 1002 10 16.0934 0 0
4:15 pm 16:15 Sunny 95 34.8 70 21.1 45 45 SSE 9 15 29.59 1002 10 16.0934 0 0
4:35 pm 16:35 Sunny 94 34.7 70 21.3 46 46 SSE 7 11 29.56 1001 10 16.0934 0 0
4:55 pm 16:55 Sunny 94 34.5 69 20.5 44 44 SSE 12 19 29.56 1001 10 16.0934 0 0
5:15 pm 17:15 Sunny 93 34.1 68 20.1 44 44 SSE 13 20 29.56 1001 10 16.0934 0 0
5:35 pm 17:35 Sunny 91 32.9 67 19.3 45 45 SSE 12 19 29.53 1000 10 16.0934 0 0
5:55 pm 17:55 Sunny 91 32.7 67 19.2 45 45 SSE 10 17 29.53 1000 10 16.0934 0 0
6:15 pm 18:15 Sunny 90 32.3 67 19.6 47 47 SSE 8 13 29.53 1000 10 16.0934 0 0
6:35 pm 18:35 Sunny 90 32.2 67 19.4 47 47 S 10 17 29.53 1000 10 16.0934 0 0
6:55 pm 18:55 Sunny 89 31.6 68 19.8 50 50 SSE 9 15 29.53 1000 10 16.0934 0 0
7:15 pm 19:15 Sunny 87 30.6 69 20.8 56 56 SSE 9 15 29.56 1001 10 16.0934 0 0
7:35 pm 19:35 Sunny 86 30.2 70 21 58 58 SSE 9 15 29.56 1001 10 16.0934 0 0
7:55 pm 19:55 Sunny 86 30.1 69 20.5 56 56 SSE 10 17 29.56 1001 10 16.0934 0 0
8:15 pm 20:15 Sunny 85 29.7 68 19.8 55 55 SSE 12 19 29.53 1000 10 16.0934 0 0
8:35 pm 20:35 Sunny 86 30.2 66 19 51 51 S 23 37 29.56 1001 10 16.0934 0 0
8:55 pm 20:55 Sunny 84 29.1 65 18.1 52 52 S 14 22 29.56 1001 10 16.0934 0 0
9:15 pm 21:15 Clear 82 28 64 17.7 54 54 S 12 19 29.56 1001 10 16.0934 0 0
9:35 pm 21:35 Clear 82 27.5 62 16.9 52 52 S 15 24 29.56 1001 10 16.0934 0 0
9:55 pm 21:55 Clear 81 27.1 62 16.6 53 53 S 13 20 29.59 1002 10 16.0934 0 0
10:15 pm 22:15 Clear with Nearby Thunderstorms 79 26.1 63 17 57 57 S 9 15 29.62 1003 10 16.0934 0 0
10:35 pm 22:35 Clear 80 26.5 61 16.1 53 53 S 15 24 29.62 1003 10 16.0934 0 0
10:55 pm 22:55 Clear 81 27 59 15 48 48 S 15 24 29.65 1004 10 16.0934 0 0
11:15 pm 23:15 Clear 80 26.7 60 15.5 50 50 S 16 26 29.62 1003 10 16.0934 0 0
11:35 pm 23:35 Clear with Nearby Thunderstorms 77 25 62 16.7 60 60 NNE 21 33 29.68 1005 10 16.0934 0 0
11:55 pm 23:55 Clear 78 25.3 61 16.1 57 57 NE 15 24 29.68 1005 10 16.0934 0 0

Powered by AerisWeather